sat.trackr.live / text

‹ back to catalog

KUIPER-00408

NORAD 68924 · 2026-098F

PAYLOAD ACTIVE UNKNOWN

§ Identity

Operator
Country
US
Launch date
2026-04-30
Launch site
FRGUI
Launch vehicle
Mass (kg)
RCS (m²)

External: N2YO · Heavens-Above · Gunter

§ Orbital elements

Epoch: 2026-05-25T02:15:47.471616Z

Period
94.08 min
Inclination
51.8753°
Eccentricity
0.0016063
Mean motion
15.30669114 rev/d
Perigee alt
462.8 km
Apogee alt
484.8 km
Semi-major
6,852.0 km
B*
-6.6284e-4
RAAN
179.4740°
Arg perigee
68.0481°
Mean anomaly
292.2208°
Rev number
379

§ Raw data

KUIPER-004081 68924U 26098F   26145.09429944 -.00020338  00000+0 -66284-3 0  99992 68924  51.8753 179.4740 0016063  68.0481 292.2208 15.30669114  3795

JSON: /api/v1/satellites/68924 · /tle

For live sub-satellite position, see the globe view (requires WebGL).

§ Visibility from observer

Set your observer location to see the next 7 days of passes ≥ 10°. The values pass through the URL so the page stays shareable.

No JS? Fill the form by hand. The geolocation button needs JavaScript.